Volver al catálogo

COSMOS 1818 COOLANT

LostLEO
NORAD 36954·DEBRIS·🇷🇺 Russia

Lanzado Feb 1, 1987 desde Baikonur Cosmodrome

Loading…

Próximos Pases (próximas 24 horas)

TLE

ObsoletoSource: Space-Track

Época: May 14, 2014, 02:17 UTC

1 36954U 87011AJ  14134.09549947  .00000574  00000-0  24926-3 0  9996
2 36954  65.0159  18.9367 0017759 262.0349 171.1117 14.32188639218650

Sigue COSMOS 1818 COOLANT en tiempo real con AllMySat

Download on the App Store